Regional Weather Roundup
Issued by NWS Charleston, SC

Home | Current Version | Previous Version | Text Only | Print | Product List | Glossary On
Versions: 1 2 3 4 5 6 7 8 9 10 11 12 13 14 15 16 17 18 19 20 21 22 23 24 25 26 27 28 29 30 31 32 33 34 35 36 37 38 39 40 41 42 43 44 45 46 47 48 49 50
000
ASUS42 KCHS 310813
RWRCHS

REGIONAL WEATHER ROUNDUP
NATIONAL WEATHER SERVICE CHARLESTON SC
400 AM EDT TUE MAY 31 2016

NOTE: "FAIR" INDICATES FEW OR NO CLOUDS BELOW 12,000 FEET WITH NO
SIGNIFICANT WEATHER AND/OR OBSTRUCTIONS TO VISIBILITY.

NOT ALL STATIONS ARE QUALITY CONTROLLED. USE DATA WITH CAUTION...
ESPECIALLY DEWPOINT OBSERVATIONS.

SCZ027-030-031-034>040-042>050-310900-
...SOUTHEAST SOUTH CAROLINA...

CITY           SKY/WX    TMP DP  RH WIND       PRES   REMARKS
N CHARLESTON   CLOUDY    71  69  93 NW6       29.86F
WATERFRONT PRK   N/A     71  71 100 VRB2      29.85F
MOUNT PLEASANT CLOUDY    72  72 100 NW5       29.86F FOG
JOHNS ISLAND   CLOUDY    72  72 100 NW5       29.86F
PINOPOLIS        N/A     73  72  94 N7        29.80S
MONCKS CORNER  CLOUDY    68  66  94 CALM      29.86F
SUMMERVILLE    PTSUNNY   70  70 100 CALM      29.88F
BEAUFORT MCAS  PTCLDY    72  70  93 N6        29.86F
BEAUFORT ARPT  FAIR      72  72 100 NW5       29.86F
HILTON HEAD IS CLEAR     72  72 100 N5        29.87F
WALTERBORO     CLOUDY    72  72 100 CALM      29.88F
ALLENDALE      CLOUDY    72  70  94 CALM      29.88F FOG

...SOUTHERN MIDLANDS AND PEE DEE...

CITY           SKY/WX    TMP DP  RH WIND       PRES   REMARKS
GEORGETOWN     FAIR      68  68 100 NW6       29.86F
KINGSTREE      PTSUNNY   68  66  94 CALM      29.88F
ORANGEBURG     PTCLDY    68  67  96 CALM      29.89S
BARNWELL       PTSUNNY   72  72 100 CALM      29.90F
AIKEN          FAIR      64  64 100 CALM      29.95S
MANNING        CLOUDY    70  68  94 N5        29.88F
COLUMBIA       CLOUDY    73  69  87 NE3       29.89F
SUMTER         MOCLDY    71  69  95 N6        29.87F
FLORENCE       MOCLDY    72  70  93 N7        29.89F
MYRTLE BEACH   PTCLDY    72  63  73 NW3       29.87F
N MYRTLE BEACH MOCLDY    71  69  93 N3        29.85S

$$

GAZ063-065-086>088-099>101-113>116-118-119-134>141-150-310900-
...SOUTHEAST GEORGIA...

CITY           SKY/WX    TMP DP  RH WIND       PRES   REMARKS
SAVANNAH ARPT  MOCLDY    70  68  93 W3        29.87F
HUNTER AAF     MOCLDY    71  71 100 CALM      29.84F
FORT STEWART   MOCLDY    72  67  86 CALM      29.85F
STATESBORO     CLEAR     68  67  99 CALM      29.89S
SYLVANIA       SUNNY     70  68  93 CALM      29.89S
CLAXTON        FAIR      68  68 100 CALM      29.89S

...CSRA...CENTRAL AND FAR SOUTHEAST GEORGIA...

CITY           SKY/WX    TMP DP  RH WIND       PRES   REMARKS
THOMSON        CLEAR     68  68 100 CALM      29.96S
AUGUSTA-BUSH   CLEAR     65  65 100 CALM      29.90S
AUGUSTA-DANIEL CLEAR     72  67  84 N3        29.91F
SWAINSBORO     FAIR      72  68  88 E6        29.90F
VIDALIA        CLEAR     70  64  83 CALM      29.89F
EASTMAN        FAIR     N/A N/A N/A CALM      29.91F
HAZLEHURST     PTSUNNY   74  68  82 CALM      29.88S
ALMA           MOCLDY    68  67  96 CALM      29.88F
WAYCROSS       MOCLDY    69  68  96 SW3       29.88F
JESUP          PTSUNNY   63  61  94 CALM      29.88F
BAXLEY         FAIR      72  68  88 CALM      29.88S
BRUNSWICK      CLEAR     77  70  78 W7        29.88F
SAINT SIMONS   CLEAR     73  67  81 SW9       29.88S

$$

SCZ027-028-034-036>038-045-046-048>050-GAZ119-141-310900-
...LAKE AND SUPPLEMENTAL COASTAL OBSERVATIONS...

STATION/POSITION TIME  TEMP    WIND        PRES    WAVE   SWELL
                       AIR SEA DIR/SP/G            HT/PER HT/PER/DIR
                 (UTC) (F)     (DEG/KT/KT) (MB)    (FT/S) (FT/S/D)
WINYAH BAY       NOT AVBL
LAKE MURRAY      0700   71      CALM  /  2 1012.2F
ACE BASIN NERRS  NOT AVBL
FORT PULASKI     0700   74 76  320/  3/  3 1012.0F
SAPELO ISLAND    0700   75     230/  8     1012.0S

$$

ANZ835-935-AMZ111-154-330-350-352-354-370-450-454-472-310900-
...C-MAN AND BUOY OBSERVATIONS...

STATION/POSITION TIME  TEMP    WIND        PRES    WAVE   SWELL
                       AIR SEA DIR/SP/G            HT/PER HT/PER/DIR
                 (UTC) (F)     (DEG/KT/KT) (MB)    (FT/S) (FT/S/D)
BUOY 41004       0750   75 77  270/ 19/ 23 1009.8R   5/ 5   2/ 8
BUOY 41008       0750   77 77  240/ 16/ 17 1010.7F   3/ 8   2/ 90/ 8
FOLLY BEACH CMAN 0800   71     310/  4/  6 1011.2F
CAPERS NEARSHORE 0708   72 76  300/ 12/ 14 1011.6F
FRIPP NEARSHORE  0708   74 76  260/  2/  4 1010.9F


STATION/POSITION TIME  TEMP    WIND        PRES    WAVE   SWELL
                       AIR SEA DIR/SP/G            HT/PER HT/PER/DIR
                 (UTC) (F)     (DEG/KT/KT) (MB)    (FT/S) (FT/S/D)
5E ST. MARYS GA  0701      78                N/A     3/ 8
FRYING PAN BUOY  0700          140/  6/  8 1010.6F
BUOY 41025       0750   79 80  200/ 14/ 16 1012.2F   6/ 9   5/150/ 9
CAPE LOOKOUT NC  0800   75     140/  5/  5 1011.5F
BUOY 41002       0750   75 76  150/ 12/ 14 1014.2F   5/ 8   3/110/ 8
BUOY 41010       0720   79 80  190/ 14/ 14 1013.5F
ST AUGUSTINE FL  0800   72 79  250/  8/ 10 1013.1F


$$



USA.gov is the U.S. government's official web portal to all federal, state and local government web resources and services.